Location: Vienna
(48.2082°N, 16.3738°E)
Time: 22:26:45
(UTC+02:00)

ISS - Pass Details

Date: 14 July 2018
Orbit: 402 x 408 km, 51.6° (Epoch: 20 July)

Event Time Altitude Azimuth Distance (km) Brightness Sun altitude
Exits shadow 02:40:20 18° 272° (W) 1,079 -1.9 -16.6°
Maximum altitude 02:42:35 55° 347° (NNW) 497 -3.2 -16.4°
Drops below altitude 10° 02:45:50 10° 66° (ENE) 1,473 -0.3 -16.2°
Sets 02:47:58 0° 71° (ENE) 2,336 0.7 -16.0°
